Location: ??? ???
(33.4974°N, 35.4618°E)
Time: 18:17:53
(UTC+00:00)

Cosmos 2278 - Pass Details

Date: 29 October 2020
Orbit: 841 x 851 km, 71.1° (Epoch: 29 November)

Event Time Altitude Azimuth Distance (km) Brightness Sun altitude
Rises 16:17:04 0° 199° (SSW) 3,396 7.2 -18.9°
Reaches altitude 10° 16:19:30 10° 199° (SSW) 2,463 6.4 -19.4°
Maximum altitude 16:25:10 89° 278° (W) 851 3.6 -20.6°
Enters shadow 16:30:40 11° 20° (NNE) 2,396 5.8 -21.8°
